Theta_e
310 310 309 311 310 307 308 311 309 308 310 310 311 312 312 314 316 316 316 316 316 314 314 315 315 315 315 315 316 317 319 321 321 320 320 321 321 323 324 324 325 326 326 326 326 325 325 324 325 327 327 328 328 328 328 329 330 331 331 332 332 331 330 329 327 326 325 324 322 321 318 311 301 297
309 309 309 310 310 308 309 310 310 309 311 310 310 311 311 312 313 315 316 315 314 313 313 314 314 314 314 314 315 315 315 316 316 315 316 316 317 318 319 320 320 323 323 323 323 323 324 323 323 324 326 328 329 328 328 328 328 329 330 330 331 331 331 330 329 328 326 325 324 321 321 317 308 301
309 309 309 309 309 309 308 309 311 311 310 310 309 308 309 310 311 312 314 315 314 313 313 313 312 313 313 313 313 314 314 314 313 313 314 315 316 317 317 318 319 320 320 319 319 319 320 321 321 322 323 326 328 328 328 328 328 328 328 328 329 330 331 330 330 330 328 326 325 323 321 320 315 307
310 310 310 309 308 306 306 307 310 310 309 310 309 308 309 310 310 309 311 313 313 311 311 311 311 311 311 311 312 312 312 312 313 314 315 315 316 317 318 319 319 320 320 320 320 320 320 320 320 320 320 321 324 326 327 327 327 328 328 328 328 328 329 329 330 329 329 327 326 324 321 321 319 314
310 310 310 310 309 307 306 307 308 308 308 310 309 309 310 310 310 310 310 311 311 310 310 310 309 308 309 310 311 311 311 312 312 313 313 313 314 314 315 315 316 317 318 319 320 321 321 321 320 320 319 319 320 322 324 325 325 326 327 327 327 328 327 328 329 329 329 329 327 325 322 321 321 318
309 309 308 309 309 308 307 306 307 307 307 307 308 309 309 309 309 308 308 309 309 310 310 309 309 309 309 310 310 310 310 310 310 310 311 311 311 312 312 312 313 313 314 315 316 317 319 320 321 321 321 321 320 320 321 322 323 323 324 324 325 326 326 327 328 328 328 329 328 326 324 323 321 319
310 309 308 309 309 308 307 307 307 307 306 307 308 308 307 307 307 307 308 309 310 310 311 310 311 310 309 309 309 309 309 309 309 309 310 310 310 310 311 311 312 312 313 313 314 315 316 318 320 321 321 321 320 320 320 321 322 322 322 323 323 324 325 325 326 327 327 328 328 328 326 323 320 319
310 310 309 309 309 308 308 308 308 307 307 308 307 307 307 306 306 306 307 308 308 309 309 309 309 308 308 308 308 308 309 309 309 309 309 309 310 310 310 310 310 311 312 313 313 314 315 317 319 320 321 320 319 319 319 319 322 323 323 323 323 324 324 325 325 326 327 327 327 328 327 325 322 320
310 309 309 309 308 308 307 307 307 307 307 307 307 306 306 306 306 306 306 306 306 307 307 307 306 306 307 307 307 307 308 308 308 309 309 310 310 310 309 309 309 310 311 313 313 314 315 316 318 318 318 319 318 318 318 318 320 323 324 324 324 324 324 325 325 325 326 326 326 327 327 327 325 322
309 308 308 308 308 307 307 307 307 307 306 306 306 306 306 306 306 305 305 306 306 306 306 306 306 306 306 306 307 307 307 308 308 308 308 309 309 310 311 311 312 312 313 313 313 313 314 316 317 316 316 317 318 317 317 317 316 319 322 323 323 324 325 325 325 325 325 325 325 326 326 326 325 323
309 308 307 307 307 306 306 306 305 306 306 305 305 304 303 303 302 303 303 304 304 305 305 305 306 306 306 306 307 306 307 307 307 308 308 309 309 310 310 311 311 311 311 310 308 308 311 313 316 317 317 317 318 318 318 317 315 316 318 320 322 323 324 324 324 325 325 325 325 325 325 325 325 324
308 308 307 306 306 305 305 305 305 305 304 302 301 300 299 299 300 300 301 302 302 303 303 304 305 305 305 306 306 306 306 307 307 308 308 308 308 308 308 308 308 309 310 309 308 309 310 311 314 317 318 318 318 319 319 319 318 317 317 318 319 320 321 323 324 324 325 325 325 324 323 324 324 323
307 306 305 304 304 304 304 304 304 302 299 296 295 294 295 296 298 298 298 298 299 299 300 301 302 303 303 304 304 305 305 306 306 306 306 306 307 307 307 308 308 309 310 310 311 311 312 312 313 317 319 319 319 320 320 320 320 319 318 317 316 316 317 319 321 323 325 325 325 324 323 323 323 323
306 305 304 304 303 303 303 302 301 299 297 295 294 293 294 295 295 296 296 296 297 297 298 299 300 301 301 302 302 303 304 304 305 305 306 306 306 307 308 308 308 309 309 310 311 311 312 312 313 316 318 319 319 320 321 321 320 321 320 318 316 315 315 317 319 321 323 324 325 325 323 322 322 323
305 304 303 303 303 302 301 301 300 299 299 298 297 296 297 297 296 297 296 296 296 297 298 298 298 299 300 300 301 301 302 302 303 304 304 304 305 306 307 307 308 308 308 308 308 309 310 311 312 312 314 315 316 318 321 321 321 321 321 320 318 318 318 319 319 319 320 321 322 323 322 321 321 322
304 304 303 303 303 303 302 301 300 301 300 299 298 299 299 298 298 297 297 297 297 297 298 298 298 299 299 299 299 299 300 301 301 301 301 302 304 304 305 306 306 306 306 306 306 307 308 309 310 311 312 313 314 315 317 319 320 320 320 320 321 320 320 320 319 318 318 317 318 319 320 320 320 321
304 303 303 303 303 303 302 301 301 300 300 300 300 300 299 298 298 298 298 298 298 297 298 298 298 299 299 299 299 299 300 300 300 300 301 301 302 302 302 303 303 304 304 304 304 305 305 306 307 308 310 311 312 313 314 316 318 318 319 320 320 320 320 319 318 317 317 316 316 316 316 317 319 320
303 303 302 302 302 302 302 302 301 301 300 301 301 300 299 299 298 298 298 298 297 298 298 298 298 298 298 299 299 299 300 300 300 300 299 299 299 299 299 299 300 301 302 302 303 304 304 304 305 306 308 309 310 311 313 314 316 317 318 319 319 319 318 318 317 317 316 316 315 315 315 315 316 317
303 302 302 302 301 301 301 301 301 301 301 300 300 299 299 298 298 297 297 297 298 298 298 298 299 299 299 299 299 300 300 300 300 299 297 297 297 297 297 298 299 299 300 301 302 303 303 303 304 305 306 307 308 309 310 312 314 316 317 317 316 316 316 315 316 315 315 314 314 313 313 313 314 315
302 301 301 301 301 301 301 301 301 301 301 300 299 298 298 297 297 297 297 297 298 298 298 298 298 298 298 298 299 299 299 298 298 297 296 296 296 296 296 297 298 299 299 300 302 303 303 303 303 304 305 305 306 306 307 308 311 313 315 316 315 314 313 313 313 313 312 312 311 311 311 312 313 314
302 301 301 301 301 301 301 301 301 301 300 299 298 298 298 297 297 297 297 297 298 298 297 297 297 297 297 297 297 298 297 297 297 297 296 296 296 296 296 296 297 298 299 300 301 302 302 302 303 304 304 305 305 306 307 308 310 312 313 314 313 312 311 311 311 311 311 310 309 309 308 309 311 313
302 302 301 301 301 301 301 301 300 299 299 298 298 298 297 297 297 297 297 297 297 297 297 297 296 297 297 297 297 297 297 297 297 297 296 296 296 296 296 296 297 298 298 299 300 300 301 301 302 303 303 304 305 306 306 307 309 311 311 311 311 310 310 310 310 310 309 309 308 307 307 308 311 313
302 302 302 302 301 300 300 299 299 298 298 297 296 296 296 296 296 296 296 296 296 296 295 295 295 295 295 295 295 295 295 296 296 296 297 297 296 296 296 297 297 297 298 298 299 299 300 300 301 301 302 303 304 305 306 308 309 310 309 309 309 308 308 309 309 309 308 308 308 307 307 308 311 313
301 301 301 300 300 299 299 298 297 296 296 295 295 294 294 294 294 295 295 294 294 293 293 292 293 293 293 293 293 293 293 294 294 295 296 296 296 297 297 297 297 297 298 298 298 299 299 299 299 300 300 301 303 303 306 309 309 307 307 307 307 307 307 308 308 308 308 307 307 308 308 309 311 311
299 299 298 298 299 298 297 297 296 295 295 294 293 293 292 292 292 292 292 292 291 291 291 291 292 292 292 292 292 293 293 293 294 294 295 296 296 296 297 297 297 297 297 298 298 298 298 298 299 299 299 300 301 302 303 306 307 306 306 305 305 305 306 306 306 306 306 306 306 307 309 309 309 308
297 297 298 297 297 297 296 296 295 294 293 292 292 292 292 291 291 291 291 291 291 291 291 291 291 292 292 292 292 292 293 293 294 294 294 295 295 296 296 297 297 297 297 297 298 298 298 298 298 299 299 299 300 300 301 302 304 305 306 305 303 303 303 304 303 302 302 303 304 305 306 306 305 304
296 297 298 298 297 296 295 294 293 293 292 292 292 292 292 292 291 291 291 291 291 291 291 292 292 292 292 292 292 292 292 293 293 293 294 294 294 295 295 296 296 296 296 297 297 297 297 297 297 298 298 298 299 299 300 300 302 304 305 304 303 303 302 301 300 300 300 301 301 302 303 302 302 301
296 297 297 297 297 296 294 293 293 293 293 293 293 292 292 292 292 292 291 291 291 292 292 292 292 292 292 292 292 292 292 292 293 293 293 293 294 294 294 295 295 295 296 296 296 296 296 297 297 297 298 298 298 299 299 300 300 302 304 303 302 302 302 301 299 299 299 299 299 299 300 300 300 300
296 296 296 296 295 294 294 293 293 293 293 293 292 292 292 292 292 292 292 292 292 292 292 292 292 292 292 293 292 293 293 293 293 293 293 293 293 293 294 294 294 295 295 295 296 296 296 297 297 297 297 298 298 298 299 299 299 300 302 303 301 300 300 299 298 298 298 297 296 297 297 298 298 298
296 296 295 294 294 293 293 294 293 293 293 293 293 293 293 293 292 293 292 292 293 293 292 292 292 292 292 293 293 293 293 293 293 293 293 293 294 294 294 294 294 295 295 295 295 296 296 296 296 297 297 297 297 298 298 298 299 299 301 301 300 298 297 297 296 296 296 295 295 295 296 296 296 296
294 293 293 293 293 294 294 294 294 294 293 293 293 292 292 292 292 292 292 292 292 292 292 292 292 292 292 292 292 292 293 293 293 293 293 294 294 294 294 294 295 295 295 295 296 296 296 296 296 296 296 297 297 297 297 298 298 299 299 300 300 299 298 296 296 295 295 294 294 294 294 294 295 295
292 292 293 294 294 294 294 294 293 293 293 292 292 292 291 291 291 291 291 291 291 292 292 292 292 292 292 292 292 292 292 292 293 293 293 293 294 294 294 294 295 295 295 295 295 295 296 296 296 296 296 296 296 296 297 297 298 298 299 300 299 299 298 297 296 295 294 294 293 293 293 293 294 294
292 293 294 294 294 293 293 293 292 292 292 292 291 291 291 291 291 291 291 291 291 291 292 292 291 291 291 291 292 292 292 292 292 292 293 293 293 294 294 294 294 295 295 295 295 295 295 295 295 295 295 295 295 295 296 297 297 298 299 299 299 298 297 297 296 295 294 293 293 292 292 293 293 293
293 293 293 293 293 293 292 292 292 292 291 291 291 291 291 291 291 291 291 291 291 291 291 291 291 291 291 291 291 291 291 291 291 292 292 292 293 293 293 294 294 294 294 294 294 294 294 294 294 294 294 294 295 295 295 296 296 297 298 299 298 298 297 296 295 294 293 293 293 292 292 292 292 292
292 293 293 293 293 292 292 292 292 291 291 291 291 291 291 291 291 291 291 291 291 290 291 291 290 290 290 290 290 290 290 291 291 291 291 291 292 292 292 293 293 293 293 293 294 294 294 294 294 294 294 294 295 295 295 296 296 297 298 298 298 297 296 296 295 294 293 292 292 292 292 292 292 292
292 293 292 292 292 292 291 291 291 291 291 291 291 291 291 291 291 291 290 290 290 290 290 290 290 290 290 290 290 290 290 290 290 290 291 291 291 291 292 292 292 292 293 293 293 293 294 294 294 294 294 294 295 295 295 296 296 297 297 298 298 297 296 296 295 294 292 292 292 292 292 292 292 292
292 292 292 291 291 291 291 291 291 291 291 291 291 291 291 291 290 290 290 290 290 290 290 290 290 290 289 289 289 289 289 290 290 290 290 290 290 291 291 291 292 292 292 293 293 293 293 294 294 294 294 294 295 295 295 296 296 297 297 298 297 297 297 296 294 293 292 292 292 292 292 292 291 291
292 292 291 291 291 291 291 291 291 290 290 291 291 290 290 290 290 290 290 290 290 290 290 290 290 289 289 289 289 289 289 289 289 290 290 290 290 291 291 291 291 292 292 292 293 293 293 294 294 294 295 295 295 295 295 296 296 297 297 298 297 296 296 295 293 292 292 292 291 292 292 292 291 291
292 291 291 291 291 290 290 290 290 290 290 290 290 290 290 290 289 289 289 289 289 289 289 289 289 289 289 289 289 289 289 289 289 289 290 290 290 290 291 291 291 292 292 292 293 293 293 294 294 294 295 295 295 295 295 296 296 297 297 298 298 296 295 294 293 292 291 291 291 291 291 291 291 291
291 291 291 291 290 290 290 290 290 290 290 290 290 289 289 289 289 289 289 289 289 289 289 289 289 289 288 288 288 289 289 289 289 289 289 290 290 290 290 291 291 292 292 292 293 293 293 294 294 294 295 295 295 296 296 296 296 296 297 297 297 297 296 295 293 292 291 291 291 291 290 290 290 290
291 291 291 290 290 290 290 290 290 290 290 289 289 289 288 288 288 288 288 288 288 288 288 288 288 288 288 288 288 288 289 289 289 289 289 290 290 290 290 291 291 291 292 292 292 293 293 294 294 294 294 295 295 295 296 296 295 294 295 295 295 296 297 296 294 293 292 291 291 290 289 289 289 289
291 291 291 290 290 290 290 290 290 290 289 289 288 288 288 288 288 288 288 288 288 288 288 288 288 288 288 288 288 288 289 289 289 289 289 289 289 290 290 290 291 291 292 292 292 293 293 293 294 294 295 295 295 295 295 295 293 292 293 293 293 293 294 294 294 293 292 292 291 290 289 289 289 289
291 291 291 290 290 290 290 290 289 289 289 289 288 288 288 288 288 288 288 288 288 288 288 288 288 288 288 288 288 288 289 289 289 289 289 289 290 290 290 290 291 291 291 292 292 292 293 293 294 294 295 296 295 295 294 294 293 292 292 292 292 292 291 291 291 292 291 291 291 291 290 290 290 289
291 291 290 290 290 290 290 289 289 289 288 288 288 288 288 288 288 287 287 287 287 287 287 287 287 287 288 288 288 288 288 289 289 289 289 290 290 290 290 290 291 291 291 292 292 292 292 293 294 295 296 296 295 295 294 293 292 291 291 291 291 291 290 290 290 290 290 290 291 291 290 290 290 290
291 290 290 290 290 290 289 289 289 289 288 288 287 287 287 287 287 287 287 287 287 287 287 287 287 287 287 288 288 288 288 289 289 289 289 289 290 290 290 291 291 291 291 292 292 292 293 294 295 296 296 296 295 295 294 292 291 291 290 290 290 290 290 290 290 290 290 290 290 290 290 290 290 290
Wind_Speed
5 6 5 4 3 4 4 2 2 2 2 2 3 4 6 6 4 3 3 4 7 14 18 17 16 18 19 18 16 14 11 8 7 8 9 11 12 13 13 14 15 16 17 19 18 18 18 18 20 21 22 23 24 25 27 29 31 32 32 32 32 32 31 31 31 31 30 28 28 28 28 28 29 28
4 3 4 4 2 3 3 3 3 3 3 3 3 3 4 5 5 3 3 4 6 13 17 18 19 20 20 19 17 17 15 13 12 12 13 13 15 16 16 17 16 16 18 19 21 21 21 20 19 19 20 21 23 24 25 27 29 31 32 32 33 33 34 34 33 32 32 32 31 31 30 30 30 29
3 2 3 4 1 2 2 3 3 3 3 3 3 4 3 4 4 5 5 3 5 11 15 18 19 19 20 19 17 17 17 16 16 15 14 14 15 16 17 19 19 19 20 21 21 22 22 23 22 21 20 19 20 22 23 25 26 28 30 32 33 34 35 35 35 34 34 35 35 35 33 32 32 31
3 2 2 2 0 1 2 2 1 2 4 4 4 3 3 4 4 5 6 5 7 12 14 16 18 17 19 20 18 17 17 16 16 16 15 16 16 16 17 18 19 19 20 21 21 20 20 21 22 23 23 21 20 20 21 23 24 25 27 28 30 32 34 35 36 37 36 37 39 39 37 35 34 34
5 3 3 3 2 2 2 2 2 4 5 6 7 6 6 6 5 4 6 7 8 13 14 15 17 17 17 17 16 17 18 18 17 17 18 17 18 18 19 19 20 20 21 21 21 21 21 21 21 22 23 23 24 23 23 23 24 24 25 26 27 28 31 33 35 37 38 39 41 41 39 39 39 38
7 5 4 4 4 3 3 3 4 5 5 5 7 6 5 6 6 5 8 10 10 12 15 15 16 16 15 15 16 16 18 19 19 19 19 18 18 19 19 20 21 22 22 21 21 21 22 22 22 21 21 22 24 26 27 27 26 26 26 26 26 27 28 30 32 35 37 40 42 42 42 42 42 40
9 7 5 4 5 5 4 3 3 4 5 5 6 7 7 8 10 9 10 11 11 13 15 14 15 15 15 16 17 17 18 19 18 19 19 18 19 19 19 20 21 21 21 21 21 21 22 23 23 22 22 22 23 24 26 27 29 29 29 29 29 28 28 28 30 32 34 37 41 43 43 43 43 41
9 9 7 6 6 6 4 4 4 4 4 5 5 7 7 8 10 10 9 10 11 13 14 14 15 16 17 18 18 17 18 18 18 18 18 18 19 19 19 20 21 21 21 21 21 21 20 21 23 23 23 22 23 23 24 25 27 29 30 30 30 29 29 29 29 29 31 34 38 40 42 43 43 43
10 9 8 7 7 6 5 4 5 4 3 4 5 7 8 9 11 12 12 12 13 14 16 17 17 17 18 18 18 17 18 19 18 17 17 17 18 19 20 21 20 20 20 21 21 21 20 20 21 23 23 24 24 24 24 25 26 28 29 30 30 30 29 29 29 29 30 32 35 37 39 42 43 44
10 9 8 7 7 7 6 5 5 4 4 4 5 6 8 9 10 12 12 12 13 15 17 18 18 19 18 18 18 17 17 19 19 19 19 18 18 17 18 19 19 19 20 21 21 21 21 22 23 24 24 24 24 24 24 25 26 28 28 28 29 30 30 30 30 29 30 31 33 35 38 40 42 44
10 10 8 8 8 7 6 6 5 5 4 4 4 5 6 8 9 11 12 12 14 15 17 17 17 18 18 18 18 17 17 17 18 18 19 18 17 17 18 20 21 22 24 25 25 24 23 23 25 26 26 26 24 24 24 24 24 26 28 28 27 28 29 30 30 29 29 31 32 34 36 39 42 44
10 10 9 8 8 8 9 9 8 7 6 6 7 7 6 7 8 9 10 12 14 15 16 17 17 18 18 18 18 17 16 16 15 16 18 20 21 22 23 23 22 23 24 25 25 24 23 23 24 26 29 29 26 25 25 24 24 24 26 27 27 26 26 28 29 29 29 30 32 33 35 37 40 43
12 12 11 9 10 11 12 11 10 9 9 11 11 11 9 8 8 8 9 11 13 15 16 17 17 17 17 17 18 18 17 18 19 20 21 23 23 23 23 23 21 20 21 22 23 23 23 24 23 22 24 25 25 26 27 25 23 22 23 25 27 27 27 27 28 28 29 30 31 31 32 34 37 41
12 12 11 11 13 14 13 12 12 12 11 10 10 11 11 10 9 8 10 11 12 13 14 16 16 16 16 17 18 18 18 19 21 20 20 20 21 21 20 19 18 16 18 20 21 21 20 22 23 20 19 20 22 25 27 27 24 22 22 24 25 27 28 28 27 27 28 29 30 30 31 31 34 37
12 11 10 11 13 14 14 14 14 13 10 8 9 10 10 9 9 10 11 13 13 13 14 15 16 16 17 17 17 19 20 20 19 19 20 21 21 20 17 15 15 15 18 23 25 24 22 21 23 23 21 22 22 20 19 21 22 21 21 22 24 25 25 24 24 24 24 26 28 29 30 30 31 33
11 11 11 11 11 11 12 12 12 10 10 10 11 11 10 10 10 11 13 14 15 15 16 16 16 16 18 18 19 19 19 20 21 22 22 20 19 19 17 16 17 16 19 25 26 26 25 23 24 25 23 22 23 22 19 17 18 19 20 21 22 23 23 23 22 21 22 23 25 26 28 28 29 30
11 11 11 10 9 9 10 10 10 10 12 13 13 12 12 12 12 13 14 15 17 19 21 21 20 19 18 19 19 19 19 22 23 22 20 18 18 20 19 20 23 23 22 26 27 26 27 26 27 28 25 22 23 25 23 19 18 19 20 21 22 22 22 23 22 22 22 22 22 23 24 25 27 28
12 10 8 8 8 9 9 10 10 10 11 11 10 9 10 11 12 14 15 17 19 21 24 26 26 24 23 22 23 23 22 21 20 18 18 19 21 24 25 27 30 31 28 27 26 25 25 24 24 27 27 25 25 26 24 20 18 19 20 21 21 20 20 20 21 21 22 23 23 23 23 23 25 26
11 10 9 9 10 11 10 10 11 11 11 11 10 10 11 13 15 16 17 18 20 21 22 24 25 25 24 24 24 23 22 21 22 24 26 25 25 27 29 30 31 29 26 24 23 22 21 21 23 26 25 24 25 25 24 21 19 20 20 20 20 19 19 19 19 21 23 25 26 27 26 24 23 24
12 12 11 12 12 13 13 13 14 14 14 14 14 14 15 17 19 19 19 19 19 21 21 22 24 24 24 24 25 26 27 28 29 31 30 27 26 27 27 26 27 27 24 22 23 24 22 20 24 27 25 24 25 27 27 26 24 22 22 21 21 19 18 17 18 20 23 25 27 28 28 27 24 23
12 13 12 13 13 13 13 13 13 13 14 15 15 17 18 19 20 19 19 19 19 20 21 22 23 24 25 25 25 26 28 30 30 31 29 25 23 22 20 19 22 25 24 21 21 24 23 20 22 25 24 23 24 24 26 26 25 24 24 22 20 18 17 16 18 21 24 26 28 29 29 28 25 22
12 13 14 14 14 14 13 13 12 13 14 14 14 15 16 17 19 19 20 20 20 20 21 21 22 23 24 25 24 24 24 25 25 29 30 27 24 21 18 18 21 23 23 21 20 23 24 23 24 25 22 22 24 23 23 26 25 23 21 18 16 16 16 18 20 23 24 26 28 29 27 26 23 21
13 12 12 13 15 16 13 12 12 12 12 12 12 13 14 16 19 20 20 20 21 22 24 25 26 27 28 29 30 29 28 26 24 25 27 27 26 23 21 19 18 15 15 17 18 21 22 20 21 21 16 13 15 18 20 20 18 15 13 12 14 15 15 18 20 22 23 23 24 24 22 20 20 21
8 7 7 8 11 12 11 9 9 10 10 12 13 15 17 19 20 21 22 23 25 27 29 29 29 29 29 29 29 29 29 28 26 25 26 26 26 25 23 21 18 15 14 15 16 20 21 18 18 20 17 10 10 16 18 10 8 8 7 8 12 15 16 18 19 19 19 20 19 19 18 17 18 20
5 7 6 4 6 8 8 8 10 12 14 16 17 19 19 19 20 21 22 24 24 25 25 25 24 23 23 22 22 22 22 23 23 23 24 24 24 25 24 22 21 21 20 18 17 20 20 17 17 19 20 16 14 17 19 10 4 5 7 6 9 13 15 18 19 18 18 17 16 15 15 14 14 15
7 8 7 5 4 5 9 12 15 18 19 19 18 17 17 17 17 18 20 22 23 22 21 21 21 20 19 19 19 19 19 20 20 21 22 22 22 24 25 24 23 22 21 19 20 22 22 18 17 17 17 17 17 18 20 17 13 12 11 9 8 10 12 15 16 16 15 14 13 12 10 10 10 12
7 8 7 6 6 10 14 17 18 17 16 15 15 14 15 16 17 18 21 22 22 21 20 19 19 19 19 19 19 19 19 20 20 21 21 22 22 23 24 24 24 24 23 22 22 24 24 21 19 18 17 17 18 17 17 18 17 14 11 10 10 12 14 15 14 13 12 10 9 8 7 8 10 12
7 9 10 12 14 17 18 16 15 14 12 12 13 14 16 17 18 20 21 20 19 19 18 18 18 18 19 19 19 19 20 20 21 22 23 23 24 25 25 25 25 24 24 23 23 24 25 24 22 21 21 21 19 16 15 17 20 18 12 9 9 11 13 14 13 11 9 7 6 7 9 10 11 13
8 10 12 15 18 18 15 12 12 11 11 13 15 16 17 17 18 20 19 17 17 18 18 18 19 19 20 21 22 23 23 23 23 23 24 24 25 26 27 27 27 26 25 24 23 22 23 24 24 23 23 23 22 20 17 18 20 20 15 10 9 7 10 11 11 8 6 6 7 8 10 12 13 15
7 9 13 16 16 15 13 13 13 12 12 14 15 15 16 16 17 18 17 17 18 18 19 19 20 21 22 23 24 24 24 24 24 24 25 25 24 24 24 25 25 26 25 24 24 24 24 24 23 23 23 23 23 23 21 19 20 21 19 12 9 6 5 7 7 6 7 8 9 10 11 12 14 16
9 12 13 13 12 12 12 13 14 13 13 14 14 15 16 16 17 18 18 20 21 21 22 22 22 22 23 23 23 23 22 23 23 23 24 25 24 23 23 23 22 22 22 22 22 23 23 23 22 21 22 21 21 22 22 21 21 22 20 16 12 9 7 7 7 6 8 10 10 10 11 13 14 15
11 10 8 8 9 11 11 11 11 12 13 14 15 16 17 17 18 19 20 21 22 23 23 23 22 23 23 23 23 23 23 23 22 22 23 23 23 22 21 21 20 19 19 20 21 21 22 23 23 23 23 24 23 23 22 22 22 22 19 16 14 12 10 10 9 8 10 12 10 10 11 13 14 15
6 6 7 8 9 10 11 11 12 13 13 15 16 17 18 18 19 19 20 21 22 22 23 23 23 24 24 24 24 23 23 23 23 23 23 23 23 23 22 21 20 19 19 20 22 24 25 26 26 27 27 28 29 28 25 23 23 24 21 17 15 14 13 12 11 10 12 14 13 11 11 13 14 15
5 7 9 9 9 11 12 12 13 13 14 16 16 17 18 19 20 20 21 22 23 24 24 25 25 25 25 26 26 25 25 25 24 24 24 24 23 22 21 21 21 21 21 22 23 25 26 26 26 26 27 28 30 31 30 27 26 26 23 19 18 17 15 13 12 12 14 15 15 14 13 12 13 14
6 8 8 9 10 11 12 12 13 14 16 17 17 18 19 21 21 22 23 24 25 25 25 25 25 26 26 26 26 26 26 26 25 25 25 25 24 23 22 22 22 22 23 23 24 25 25 24 23 22 22 22 22 24 28 30 29 27 23 20 19 19 16 13 13 14 15 15 17 16 15 13 12 13
6 7 9 10 11 11 11 12 14 16 17 18 18 19 19 21 22 24 25 26 25 25 26 26 26 26 26 26 27 27 27 26 25 25 24 24 24 24 23 23 24 25 24 23 24 25 24 23 22 19 15 12 10 11 18 24 26 26 24 21 19 19 18 15 14 16 17 17 18 18 16 14 14 15
6 9 10 10 10 11 13 14 16 17 18 18 19 19 20 22 24 25 26 27 26 27 27 28 27 27 27 27 27 27 27 26 25 24 24 24 23 23 23 23 24 24 24 24 25 25 23 23 22 20 14 8 6 7 10 14 16 19 23 24 22 21 20 18 18 18 18 18 18 17 16 16 16 16
7 9 9 10 11 12 14 15 17 18 19 19 20 21 23 24 25 26 27 27 27 27 27 27 26 27 27 27 27 26 26 25 24 24 23 23 22 22 22 22 23 23 23 24 24 25 24 23 23 21 16 9 5 5 7 9 11 14 19 25 26 25 23 22 23 22 20 19 17 15 16 18 19 18
7 8 9 10 11 13 14 16 18 19 19 20 22 23 24 25 26 27 28 27 27 27 27 26 27 28 28 28 27 27 26 25 24 23 23 23 22 22 22 21 21 21 22 22 22 22 23 23 23 23 21 16 13 12 10 9 11 14 17 23 28 28 26 26 26 24 22 21 19 18 18 20 20 19
7 8 10 11 12 13 15 17 18 19 20 22 24 25 26 26 27 27 27 28 28 28 28 28 29 29 29 28 27 26 26 25 25 25 24 24 23 24 24 23 22 21 20 19 19 19 21 23 24 25 25 24 23 21 16 10 9 11 13 19 26 27 26 27 29 29 26 24 25 25 24 23 22 22
7 8 10 11 12 14 15 17 18 19 20 23 25 26 26 27 27 28 29 29 30 30 29 29 29 28 28 28 27 26 25 25 24 24 24 24 23 24 24 23 23 21 18 17 17 18 21 24 24 23 24 25 23 19 13 7 4 5 9 16 21 23 24 25 28 30 29 29 30 27 24 23 24 24
7 8 9 10 12 14 16 18 19 20 22 24 25 26 27 28 28 29 29 30 30 29 29 28 28 28 27 27 27 26 25 24 24 23 23 23 22 23 23 22 21 20 18 17 18 21 23 23 22 21 22 22 21 16 9 7 8 9 11 13 17 19 21 23 27 29 30 32 33 29 25 23 20 17
7 8 9 11 13 15 16 18 19 21 23 25 26 27 28 28 28 29 30 30 29 29 28 28 28 27 27 27 26 25 24 24 23 23 23 23 22 22 21 21 21 21 21 21 22 23 22 20 21 21 20 20 21 17 11 11 14 16 16 16 16 17 18 20 23 26 28 30 31 30 30 28 21 18
7 8 9 11 13 15 16 18 20 22 24 27 28 28 28 28 29 30 30 30 29 29 29 28 28 27 27 26 25 24 23 23 23 23 23 23 22 22 22 22 22 21 21 21 21 20 20 19 19 19 19 19 20 18 14 15 17 18 20 22 22 22 21 22 23 24 24 23 22 24 26 25 22 24
7 8 9 11 13 15 17 19 21 23 25 27 28 28 28 28 29 30 31 31 30 30 29 28 27 26 26 25 24 23 23 23 22 23 23 22 22 22 21 21 20 19 19 19 18 16 16 16 16 17 18 18 18 18 18 19 20 20 22 24 25 25 25 25 25 23 20 16 15 18 20 19 18 23
Wind_Direction
86 82 83 99 76 33 55 53 7 45 42 44 56 7 349 346 338 328 333 330 327 334 337 338 346 356 356 352 350 355 0 355 351 348 325 307 300 299 295 285 278 274 273 274 276 275 274 272 271 269 265 261 258 253 246 241 240 241 243 245 247 247 247 244 240 236 231 228 227 227 230 233 234 235
108 93 92 100 65 13 29 7 355 29 25 21 24 356 343 339 336 332 321 318 318 324 330 334 338 342 344 345 342 338 339 335 333 330 318 307 300 296 292 289 285 279 275 275 275 274 273 272 272 272 268 263 258 255 252 247 244 243 243 245 246 247 247 247 245 242 238 233 230 228 231 234 234 234
135 119 114 105 72 340 342 332 335 360 353 352 350 337 326 315 317 321 312 295 303 319 326 326 328 332 332 334 334 330 328 326 323 319 314 310 304 297 292 289 288 286 282 280 279 277 274 271 269 268 267 265 259 254 253 252 249 248 246 247 247 247 247 247 248 247 244 241 236 230 230 235 236 235
176 175 155 149 229 303 337 344 329 307 299 302 310 306 298 293 285 288 293 285 292 305 313 316 319 322 323 324 326 324 322 321 318 313 307 302 296 296 297 293 289 286 284 281 279 276 273 270 266 263 262 263 260 256 254 253 252 251 249 250 250 249 248 247 248 248 246 246 242 233 230 234 237 236
196 204 208 222 252 295 345 349 316 299 284 275 275 261 247 257 258 265 285 289 293 298 303 309 311 310 314 317 318 319 316 314 313 310 306 302 298 295 295 293 290 286 283 281 278 273 270 266 264 264 264 264 263 260 258 255 254 254 252 252 253 252 251 249 248 248 247 248 246 239 234 235 237 237
203 207 214 215 218 235 275 296 301 317 324 313 304 294 285 295 299 301 302 300 299 300 302 305 305 307 311 311 310 310 308 307 308 307 304 302 300 297 295 292 290 288 287 287 284 279 273 265 262 263 265 267 267 264 262 259 257 258 258 257 256 256 255 253 250 249 248 249 247 243 240 237 236 235
205 204 212 215 211 221 248 275 289 313 322 319 321 323 323 318 309 299 292 287 283 286 292 297 301 304 307 305 303 303 301 301 302 301 300 298 295 295 294 292 291 290 289 287 284 282 276 266 261 261 263 266 271 271 269 264 261 260 261 261 261 259 258 257 255 252 250 249 248 247 245 240 235 234
207 203 207 213 217 219 228 249 272 288 292 294 311 322 319 314 312 311 307 298 293 291 295 300 303 304 304 302 301 302 301 300 299 296 297 296 295 295 294 294 295 292 289 288 288 288 283 270 261 262 264 267 271 274 273 270 265 262 261 262 262 262 262 261 259 257 253 250 249 249 249 246 241 237
206 201 206 214 215 215 221 236 254 270 287 300 309 316 316 312 312 317 319 314 311 308 304 304 304 303 301 300 299 300 299 297 296 295 293 292 293 294 294 295 297 294 290 290 289 288 284 275 266 266 268 270 272 273 273 272 269 265 262 262 262 263 264 264 262 260 257 253 250 250 250 249 246 241
211 208 211 218 215 213 222 230 244 265 283 295 301 307 310 310 311 315 316 312 308 304 300 300 302 301 300 298 297 298 298 298 300 302 298 293 290 290 293 299 303 301 297 296 294 290 284 276 270 269 269 270 272 273 274 274 270 264 262 262 263 264 264 266 265 263 260 256 253 252 251 250 248 244
217 218 216 219 218 216 221 229 234 239 244 255 270 290 302 309 314 315 315 312 307 303 300 297 296 296 297 296 296 298 297 296 298 301 304 309 309 307 309 310 307 302 299 299 301 301 295 285 276 271 269 269 269 272 275 276 273 267 262 262 264 265 265 266 266 265 262 259 255 253 251 250 249 245
211 212 211 216 221 221 222 225 222 220 234 254 261 270 285 300 311 315 316 316 314 312 308 303 301 300 300 300 301 304 306 306 306 308 315 319 317 313 311 309 304 300 299 300 301 303 302 295 286 276 269 265 265 268 272 273 273 269 264 262 263 265 267 266 266 266 264 262 259 255 251 251 250 247
208 208 208 211 219 225 229 227 226 242 266 274 271 271 273 277 291 306 313 316 316 314 311 307 307 307 305 305 308 311 314 315 314 313 311 308 305 304 302 299 298 296 295 297 299 302 301 298 295 284 269 264 266 268 268 266 266 266 264 261 261 262 265 267 267 266 264 263 262 259 254 251 250 249
209 211 212 215 220 227 234 236 243 263 277 275 272 272 272 275 282 295 304 307 306 303 300 299 300 303 300 300 306 311 312 313 314 316 316 313 310 309 303 298 300 298 300 310 314 312 308 308 310 302 282 276 280 275 267 262 261 263 262 261 260 260 263 266 269 269 267 265 263 261 259 255 252 251
209 213 218 225 229 232 239 247 257 269 276 275 280 278 272 272 277 286 297 298 294 290 287 288 291 292 293 296 302 307 309 313 318 323 326 324 321 318 311 305 305 303 310 322 324 315 307 310 317 314 303 299 300 294 279 267 262 263 265 263 261 261 264 268 273 276 278 277 272 266 262 258 256 254
208 216 223 230 237 239 243 249 256 263 268 277 285 281 271 267 272 283 289 287 285 281 279 281 283 284 289 294 298 300 302 309 315 317 318 317 317 318 316 311 307 305 313 322 320 310 303 302 306 309 308 307 305 302 296 283 270 267 265 260 258 259 263 269 275 279 283 286 284 277 268 262 259 257
217 224 227 227 233 244 249 249 252 259 266 274 278 272 266 269 275 283 286 284 283 280 275 273 273 276 282 288 291 293 295 301 306 309 309 310 313 315 314 310 305 302 308 317 315 305 299 299 299 299 299 301 303 301 298 291 280 269 260 254 251 252 256 262 268 275 281 284 286 286 278 269 263 259
226 231 234 234 239 250 255 255 256 257 259 266 273 269 267 274 281 285 289 291 290 286 279 272 271 273 276 279 283 288 290 292 296 302 305 306 306 304 300 298 297 296 298 304 302 294 293 296 294 290 289 290 294 297 297 290 280 269 259 252 248 247 251 257 263 270 277 281 283 285 285 279 270 264
221 230 238 244 248 252 256 258 259 256 253 257 268 274 276 280 282 283 286 289 289 289 286 280 278 277 277 276 278 280 281 280 284 292 296 296 296 297 294 291 291 291 292 293 289 285 289 293 289 286 286 284 285 291 295 290 279 268 258 252 250 250 252 258 264 269 274 279 281 282 282 281 276 269
227 234 238 241 247 253 256 257 258 258 256 258 263 271 278 282 281 280 282 283 284 285 285 284 284 284 283 281 279 278 279 281 286 290 290 289 291 292 289 287 285 285 285 285 282 281 285 288 285 284 286 284 281 282 285 284 277 268 259 254 255 258 260 264 269 275 279 283 284 283 281 279 277 273
236 237 238 241 245 252 258 260 261 262 262 265 270 274 279 281 280 280 282 284 285 285 285 285 285 285 285 284 282 282 282 283 285 285 282 281 285 285 283 282 282 280 280 279 278 281 285 289 287 285 287 288 284 280 280 280 275 265 259 255 256 262 269 274 278 283 287 289 290 288 281 276 275 272
232 236 244 244 241 245 253 257 260 260 262 267 272 276 279 279 278 282 287 289 288 287 286 284 282 281 280 280 283 286 287 284 281 278 276 276 275 274 274 280 283 280 276 272 273 279 284 288 290 290 290 290 288 283 279 276 270 258 252 254 259 265 271 276 281 286 291 295 297 293 282 274 271 268
232 237 248 244 236 237 244 252 258 262 264 267 269 273 280 283 283 287 290 289 287 287 288 287 285 282 280 281 283 285 285 284 280 276 277 276 271 266 267 274 280 281 277 270 267 271 278 287 295 300 302 296 290 290 284 272 258 247 244 252 263 270 275 280 284 288 293 300 304 300 289 276 268 261
246 257 264 248 236 237 246 258 269 274 278 281 282 284 286 285 285 286 286 286 289 292 293 292 290 287 284 283 283 282 281 281 278 274 274 272 266 262 264 269 270 272 278 278 273 275 284 294 299 304 307 302 296 303 300 273 209 212 241 260 270 278 287 290 289 291 296 302 305 300 291 279 264 254
300 304 306 276 238 242 257 271 284 292 296 297 298 298 296 292 291 292 292 293 296 297 296 295 293 291 289 285 284 283 281 280 278 275 273 270 266 263 263 265 265 267 273 277 277 283 294 301 301 302 303 298 298 306 306 297 252 260 275 276 277 283 291 294 295 298 301 302 301 293 284 272 256 245
313 313 314 297 256 269 290 301 305 306 308 309 309 310 309 306 304 302 299 298 298 295 294 294 293 294 293 290 287 285 283 281 280 278 277 276 273 270 267 265 264 265 268 271 274 283 294 300 298 299 300 300 302 305 304 304 307 301 291 288 292 297 302 303 302 305 305 301 297 289 273 254 239 233
298 305 305 295 287 297 306 312 316 317 317 317 317 316 314 311 307 302 298 296 293 290 289 289 290 290 290 287 285 284 282 282 281 281 281 281 280 278 275 273 269 268 270 271 271 276 282 285 285 287 290 293 295 297 296 297 303 304 290 277 283 294 302 306 308 307 303 295 285 270 244 223 217 216
283 286 283 281 284 292 301 310 317 322 323 321 319 316 314 310 304 300 296 293 290 288 288 287 286 286 284 282 280 280 279 280 279 280 281 281 281 282 283 282 279 277 275 273 269 268 270 273 274 275 276 277 279 281 283 288 297 306 294 257 250 270 284 294 303 302 290 270 248 231 215 203 202 201
279 281 283 284 287 294 302 307 309 311 317 320 319 316 314 310 305 300 294 288 286 287 286 285 283 281 281 281 281 282 281 279 278 278 278 278 277 279 280 280 279 278 275 273 269 264 262 263 264 264 264 264 267 271 277 281 288 298 296 260 230 247 271 281 290 287 257 226 208 203 201 195 191 193
280 281 283 286 293 302 303 297 292 294 308 320 321 318 316 313 309 303 295 291 292 291 290 290 288 286 286 285 285 285 281 277 276 276 276 275 273 272 273 274 274 273 272 270 268 265 263 263 263 263 262 262 263 265 271 275 277 285 289 271 233 227 253 265 272 261 226 207 196 190 190 188 185 187
290 293 291 291 300 309 309 302 295 292 303 317 321 320 320 317 313 310 306 303 301 296 293 291 289 289 290 289 288 286 282 279 278 277 275 274 273 271 269 268 268 269 269 269 266 265 264 263 262 263 264 266 267 265 267 271 270 273 278 266 241 234 239 239 246 237 213 203 197 187 182 181 181 181
300 307 307 305 310 317 323 327 323 315 316 321 320 317 315 312 308 307 306 303 301 297 295 293 293 293 293 291 289 287 284 282 282 281 278 275 274 274 271 268 268 268 268 268 266 263 262 261 262 265 266 267 269 268 268 270 269 269 273 262 240 235 239 236 232 221 207 201 194 181 175 175 177 178
312 315 310 310 323 335 339 337 332 324 319 316 313 311 311 309 308 308 307 304 302 301 301 300 299 299 297 294 292 290 286 283 282 281 281 279 278 277 271 267 268 269 268 269 268 267 267 266 266 268 268 267 267 265 264 265 265 266 270 259 234 223 224 227 226 214 203 197 185 173 171 171 171 175
312 311 318 326 340 346 338 328 323 320 316 314 313 314 315 314 312 311 307 304 302 300 299 298 296 295 295 293 292 289 285 283 282 279 279 279 278 276 270 267 268 268 267 267 268 268 269 270 270 270 268 266 265 261 258 256 257 260 262 253 233 220 212 214 218 209 200 196 185 170 167 171 173 176
316 320 335 342 341 336 329 324 323 322 320 318 316 315 314 312 309 306 302 301 299 296 294 292 290 290 289 288 288 286 283 281 280 277 276 275 273 271 269 267 268 268 267 266 266 266 267 267 265 263 261 260 261 260 257 252 249 251 253 246 233 221 209 204 208 202 194 192 187 173 164 164 166 169
324 344 352 345 336 331 327 325 323 320 317 314 313 312 310 307 306 304 301 301 299 296 292 290 288 287 286 285 285 283 281 280 278 275 272 270 268 267 265 264 264 265 265 264 264 264 264 261 255 249 249 252 252 256 260 256 250 247 245 238 225 212 204 198 198 195 188 185 184 176 166 160 160 163
338 1 357 342 333 330 326 324 322 319 316 315 314 313 310 308 307 306 304 302 299 294 292 289 287 285 285 285 283 281 279 276 274 272 270 268 266 264 262 261 261 261 260 261 262 260 258 255 247 238 236 243 245 247 259 262 254 246 240 232 217 206 202 193 182 181 185 184 180 175 166 157 154 158
351 360 347 335 332 330 327 326 323 321 320 319 317 315 312 309 308 307 305 302 299 296 293 290 288 287 286 285 283 281 278 275 272 269 268 266 263 259 257 256 257 257 257 258 259 256 252 249 243 236 232 236 244 246 251 254 252 249 243 232 216 201 194 188 177 171 174 176 173 171 166 157 150 153
354 353 340 335 334 331 329 328 326 325 324 323 321 318 314 311 309 308 306 303 300 298 296 293 291 291 289 287 284 281 278 274 271 269 267 264 261 259 258 257 257 257 256 254 253 252 248 243 240 238 235 233 237 243 248 252 257 260 253 235 218 200 186 180 174 166 164 166 163 156 152 149 148 155
356 347 340 338 336 334 331 329 326 325 326 325 323 319 316 313 311 308 306 305 303 301 299 296 294 293 291 289 286 282 277 273 270 267 265 264 261 259 258 258 258 257 254 250 249 247 243 241 241 240 238 239 241 244 244 245 256 256 235 219 215 210 199 187 176 165 160 161 158 150 144 141 142 148
353 344 340 339 337 332 327 325 324 324 323 323 322 321 319 316 313 310 308 307 306 304 301 299 296 294 292 290 287 283 278 273 271 268 266 264 262 260 259 258 256 255 251 246 244 243 244 247 248 246 246 246 241 236 230 219 213 211 192 189 198 207 208 201 189 177 167 162 155 145 139 140 141 144
350 342 339 337 334 330 326 325 326 324 322 322 322 322 321 319 317 315 313 311 308 306 303 301 298 296 294 292 290 285 279 275 273 271 268 265 263 261 260 257 254 251 247 245 246 248 251 255 253 251 250 243 229 217 208 186 167 159 160 167 178 186 190 192 190 183 175 167 160 152 146 145 142 142
345 339 338 337 333 331 330 330 329 326 324 324 323 323 322 320 319 319 317 313 310 308 305 303 302 300 297 296 294 289 283 278 275 273 271 267 263 260 258 255 254 252 249 249 252 254 256 257 253 246 240 227 215 207 195 177 167 157 151 152 158 162 166 171 175 173 170 168 168 165 161 159 159 165
341 336 336 335 333 332 332 332 330 328 328 328 327 326 323 321 319 319 318 315 313 310 308 307 305 303 301 300 297 291 286 282 278 276 273 269 264 261 258 255 254 251 247 247 250 251 252 250 243 234 223 212 205 198 182 167 162 156 150 148 147 146 147 151 156 159 160 163 170 172 169 169 172 172
337 335 335 333 332 333 332 331 331 332 334 334 332 330 327 324 321 320 319 318 317 315 313 312 310 308 306 305 301 295 291 289 285 280 275 271 267 262 257 253 250 247 243 242 241 241 241 237 229 222 215 207 201 194 180 169 162 154 147 144 142 141 141 142 144 143 139 142 160 174 175 174 172 166